This demonstration page uses our WeatherBlox Daily Observations layout. Learn more.

Left ArrowRight Arrow

Hourly Observations for February 4, 2015

Temp ( °F °C ) Dew Point ( °F °C ) Humidity (%) Winds ( mph kmh ) Pressure ( in mb ) Visibility ( mi km ) Precip ( " mm )
12:51 am 00:51 Clear 46 7.8 42 5.6 86 86 E 5 7 30.03 1017 10 16 0.00 0.00
1:51 am 01:51 Clear 46 7.8 41 5 83 83 E 5 7 30.02 1017 10 16 0.00 0.00
2:51 am 02:51 Clear 45 7.2 40 4.4 83 83 ESE 7 11 30.01 1016 10 16 0.00 0.00
3:51 am 03:51 Clear 44 6.7 39 3.9 83 83 ESE 6 9 30.01 1016 10 16 0.00 0.00
4:51 am 04:51 Clear 43 6.1 39 3.9 86 86 Calm 30.02 1017 10 16 0.00 0.00
5:51 am 05:51 Clear 40 4.4 38 3.3 93 93 E 5 7 30.06 1018 10 16 0.00 0.00
6:51 am 06:51 Clear 40 4.4 37 2.8 89 89 SE 6 9 30.08 1019 10 16 0.00 0.00
7:51 am 07:51 Sunny 42 5.6 38 3.3 85 85 ESE 5 7 30.11 1020 10 16 0.00 0.00
8:51 am 08:51 Sunny 48 8.9 40 4.4 74 74 E 3 6 30.12 1020 10 16 0.00 0.00
9:51 am 09:51 Sunny 53 11.7 39 3.9 59 59 Calm 30.13 1020 10 16 0.00 0.00
10:51 am 10:51 Sunny 58 14.4 41 5 53 53 NNW 3 6 30.11 1020 10 16 0.00 0.00
11:51 am 11:51 Sunny 62 16.7 43 6.1 50 50 SW 6 9 30.09 1019 10 16 0.00 0.00
12:51 pm 12:51 Sunny 67 19.4 41 5 39 39 W 7 11 30.05 1018 10 16 0.00 0.00
1:51 pm 13:51 Sunny 70 21.1 35 1.7 28 28 WNW 14 22 30.01 1016 10 16 0.00 0.00
2:51 pm 14:51 Sunny 72 22.2 34 1.1 25 25 WNW 14 22 29.98 1015 10 16 0.00 0.00
3:51 pm 15:51 Sunny 73 22.8 33 0.6 23 23 NW 15 24 29.97 1015 10 16 0.00 0.00
4:51 pm 16:51 Sunny 73 22.8 33 0.6 23 23 NW 12 19 29.99 1016 10 16 0.00 0.00
5:51 pm 17:51 Sunny 66 18.9 35 1.7 32 32 NNW 9 15 30.01 1016 10 16 0.00 0.00
6:51 pm 18:51 Clear 62 16.7 36 2.2 38 38 NNW 8 13 30.04 1017 10 16 0.00 0.00
7:51 pm 19:51 Clear 61 16.1 37 2.8 41 41 NNW 9 15 30.05 1018 10 16 0.00 0.00
8:51 pm 20:51 Clear 59 15 38 3.3 46 46 NNW 5 7 30.07 1018 10 16 0.00 0.00
9:51 pm 21:51 Clear 51 10.6 41 5 69 69 Calm 30.09 1019 10 16 0.00 0.00
10:51 pm 22:51 Clear 52 11.1 39 3.9 61 61 N 3 6 30.09 1019 10 16 0.00 0.00
11:51 pm 23:51 Clear 50 10 40 4.4 68 68 ENE 6 9 30.09 1019 10 16 0.00 0.00

Powered by AerisWeather